date,time,water_lv
2020-12-01,00:00:00,15.68
2020-12-01,00:10:00,15.76
2020-12-01,00:20:00,15.82
2020-12-01,00:30:00,15.89
2020-12-01,00:40:00,15.95
2020-12-01,00:50:00,16.01
2020-12-01,01:00:00,16.09
2020-12-01,01:10:00,16.16
2020-12-01,01:20:00,16.23
2020-12-01,01:30:00,16.3
2020-12-01,01:40:00,16.37
2020-12-01,01:50:00,16.44
2020-12-01,02:00:00,16.52
2020-12-01,02:10:00,16.58
2020-12-01,02:20:00,16.65
2020-12-01,02:30:00,16.73
2020-12-01,02:40:00,16.82
2020-12-01,02:50:00,16.9
2020-12-01,03:00:00,16.98
2020-12-01,03:10:00,17.07
2020-12-01,03:20:00,17.14
2020-12-01,03:30:00,17.22
2020-12-01,03:40:00,17.3
2020-12-01,03:50:00,17.37
2020-12-01,04:00:00,17.45
2020-12-01,04:10:00,17.53
2020-12-01,04:20:00,17.59
2020-12-01,04:30:00,17.66
2020-12-01,04:40:00,17.66
2020-12-01,04:50:00,17.81
2020-12-01,05:00:00,17.88
2020-12-01,05:10:00,17.95
2020-12-01,05:20:00,18.01
2020-12-01,05:30:00,18.07
2020-12-01,05:40:00,18.13
2020-12-01,05:50:00,18.19
2020-12-01,06:00:00,18.25
2020-12-01,06:10:00,18.3
2020-12-01,06:20:00,18.35
2020-12-01,06:30:00,18.41
2020-12-01,06:40:00,18.45
2020-12-01,06:50:00,18.5
2020-12-01,07:00:00,18.55
2020-12-01,07:10:00,18.58
2020-12-01,07:20:00,18.61
2020-12-01,07:30:00,-
2020-12-01,07:40:00,-
2020-12-01,07:50:00,-
2020-12-01,08:00:00,18.73
2020-12-01,08:10:00,18.74
2020-12-01,08:20:00,18.76
2020-12-01,08:30:00,18.78
2020-12-01,08:40:00,18.79
2020-12-01,08:50:00,18.81
2020-12-01,09:00:00,18.82
2020-12-01,09:10:00,18.84
2020-12-01,09:20:00,18.84
2020-12-01,09:30:00,18.86
2020-12-01,09:40:00,18.87
2020-12-01,09:50:00,18.88
2020-12-01,10:00:00,18.9
2020-12-01,10:10:00,18.91
2020-12-01,10:20:00,18.92
2020-12-01,10:30:00,18.93
2020-12-01,10:40:00,18.94
2020-12-01,10:50:00,18.95
2020-12-01,11:00:00,18.96
2020-12-01,11:10:00,18.97
2020-12-01,11:20:00,18.98
2020-12-01,11:30:00,18.98
2020-12-01,11:40:00,18.99
2020-12-01,11:50:00,19
2020-12-01,12:00:00,19
2020-12-01,12:10:00,19.01
2020-12-01,12:20:00,19.01
2020-12-01,12:30:00,19.03
2020-12-01,12:40:00,19.03
2020-12-01,12:50:00,19.04
2020-12-01,13:00:00,19.05
2020-12-01,13:10:00,19.05
2020-12-01,13:20:00,19.06
2020-12-01,13:30:00,19.06
2020-12-01,13:40:00,19.07
2020-12-01,13:50:00,19.08
2020-12-01,14:00:00,19.08
2020-12-01,14:10:00,19.09
2020-12-01,14:20:00,19.09
2020-12-01,14:30:00,19.1
2020-12-01,14:40:00,19.1
2020-12-01,14:50:00,19.11
2020-12-01,15:00:00,19.11
2020-12-01,15:10:00,19.12
2020-12-01,15:20:00,19.12
2020-12-01,15:30:00,19.13
2020-12-01,15:40:00,19.13
2020-12-01,15:50:00,19.13
2020-12-01,16:00:00,19.13
2020-12-01,16:10:00,19.13
2020-12-01,16:20:00,19.14
2020-12-01,16:30:00,19.14
2020-12-01,16:40:00,19.14
2020-12-01,16:50:00,19.14
2020-12-01,17:00:00,19.15
2020-12-01,17:10:00,19.15
2020-12-01,17:20:00,19.15
2020-12-01,17:30:00,19.15
2020-12-01,17:40:00,19.14
2020-12-01,17:50:00,19.15
2020-12-01,18:00:00,19.16
2020-12-01,18:10:00,19.16
2020-12-01,18:20:00,19.16
2020-12-01,18:30:00,19.16
2020-12-01,18:40:00,19.17
2020-12-01,18:50:00,19.18
2020-12-01,19:00:00,19.18
2020-12-01,19:10:00,19.2
2020-12-01,19:20:00,19.2
2020-12-01,19:30:00,19.2
2020-12-01,19:40:00,19.2
2020-12-01,19:50:00,19.2
2020-12-01,20:00:00,19.2
2020-12-01,20:10:00,19.2
2020-12-01,20:20:00,19.2
2020-12-01,20:30:00,19.2
2020-12-01,20:40:00,19.2
2020-12-01,20:50:00,19.2
2020-12-01,21:00:00,19.2
2020-12-01,21:10:00,19.2
2020-12-01,21:20:00,19.2
2020-12-01,21:30:00,19.19
2020-12-01,21:40:00,19.19
2020-12-01,21:50:00,19.19
2020-12-01,22:00:00,19.2
2020-12-01,22:10:00,19.19
2020-12-01,22:20:00,19.2
2020-12-01,22:30:00,19.2
2020-12-01,22:40:00,19.19
2020-12-01,22:50:00,19.2
2020-12-01,23:00:00,19.19
2020-12-01,23:10:00,19.2
2020-12-01,23:20:00,19.2
2020-12-01,23:30:00,19.2
2020-12-01,23:40:00,19.2
2020-12-01,23:50:00,19.2
2020-12-02,00:00:00,19.2
2020-12-02,00:10:00,19.2
2020-12-02,00:20:00,19.21
2020-12-02,00:30:00,19.21
2020-12-02,00:40:00,19.21
2020-12-02,00:50:00,19.21
2020-12-02,01:00:00,19.21
2020-12-02,01:10:00,19.21
2020-12-02,01:20:00,19.21
2020-12-02,01:30:00,19.21
2020-12-02,01:40:00,19.21
2020-12-02,01:50:00,19.21
2020-12-02,02:00:00,19.22
2020-12-02,02:10:00,19.22
2020-12-02,02:20:00,19.22
2020-12-02,02:30:00,19.22
2020-12-02,02:40:00,19.22
2020-12-02,02:50:00,19.23
2020-12-02,03:00:00,19.23
2020-12-02,03:10:00,19.24
2020-12-02,03:20:00,19.23
2020-12-02,03:30:00,19.24
2020-12-02,03:40:00,19.24
2020-12-02,03:50:00,19.24
2020-12-02,04:00:00,19.24
2020-12-02,04:10:00,19.24
2020-12-02,04:20:00,19.25
2020-12-02,04:30:00,19.25
2020-12-02,04:40:00,19.26
2020-12-02,04:50:00,19.26
2020-12-02,05:00:00,19.27
2020-12-02,05:10:00,19.27
2020-12-02,05:20:00,19.27
2020-12-02,05:30:00,19.28
2020-12-02,05:40:00,19.28
2020-12-02,05:50:00,19.28
2020-12-02,06:00:00,19.28
2020-12-02,06:10:00,19.28
2020-12-02,06:20:00,19.28
2020-12-02,06:30:00,19.28
2020-12-02,06:40:00,19.29
2020-12-02,06:50:00,19.28
2020-12-02,07:00:00,19.28
2020-12-02,07:10:00,19.28
2020-12-02,07:20:00,19.29
2020-12-02,07:30:00,19.29
2020-12-02,07:40:00,19.3
2020-12-02,07:50:00,19.3
2020-12-02,08:00:00,19.3
2020-12-02,08:10:00,19.3
2020-12-02,08:20:00,19.31
2020-12-02,08:30:00,19.32
2020-12-02,08:40:00,19.32
2020-12-02,08:50:00,19.33
2020-12-02,09:00:00,19.33
2020-12-02,09:10:00,19.33
2020-12-02,09:20:00,19.34
2020-12-02,09:30:00,19.34
2020-12-02,09:40:00,19.34
2020-12-02,09:50:00,19.35
2020-12-02,10:00:00,19.35
2020-12-02,10:10:00,19.36
2020-12-02,10:20:00,-
2020-12-02,10:30:00,19.36
2020-12-02,10:40:00,19.36
2020-12-02,10:50:00,19.36
2020-12-02,11:00:00,19.37
2020-12-02,11:10:00,19.37
2020-12-02,11:20:00,19.38
2020-12-02,11:30:00,19.38
2020-12-02,11:40:00,19.39
2020-12-02,11:50:00,19.39
2020-12-02,12:00:00,19.39
2020-12-02,12:10:00,19.4
2020-12-02,12:20:00,-
2020-12-02,12:30:00,-
2020-12-02,12:40:00,19.41
2020-12-02,12:50:00,-
2020-12-02,13:00:00,-
2020-12-02,13:10:00,-
2020-12-02,13:20:00,-
2020-12-02,13:30:00,-
2020-12-02,13:40:00,19.42
2020-12-02,13:50:00,19.42
2020-12-02,14:00:00,19.42
2020-12-02,14:10:00,19.43
2020-12-02,14:20:00,19.43
2020-12-02,14:30:00,19.43
2020-12-02,14:40:00,19.43
2020-12-02,14:50:00,19.43
2020-12-02,15:00:00,19.44
2020-12-02,15:10:00,19.44
2020-12-02,15:20:00,19.44
2020-12-02,15:30:00,19.44
2020-12-02,15:40:00,19.44
2020-12-02,15:50:00,19.45
2020-12-02,16:00:00,19.45
2020-12-02,16:10:00,19.45
2020-12-02,16:20:00,19.45
2020-12-02,16:30:00,19.45
2020-12-02,16:40:00,19.45
2020-12-02,16:50:00,19.46
2020-12-02,17:00:00,19.45
2020-12-02,17:10:00,19.46
2020-12-02,17:20:00,19.46
2020-12-02,17:30:00,19.46
2020-12-02,17:40:00,19.46
2020-12-02,17:50:00,19.46
2020-12-02,18:00:00,19.46
2020-12-02,18:10:00,19.46
2020-12-02,18:20:00,19.46
2020-12-02,18:30:00,19.47
2020-12-02,18:40:00,19.46
2020-12-02,18:50:00,19.47
2020-12-02,19:00:00,19.47
2020-12-02,19:10:00,19.47
2020-12-02,19:20:00,19.47
2020-12-02,19:30:00,19.47
2020-12-02,19:40:00,19.47
2020-12-02,19:50:00,19.47
2020-12-02,20:00:00,19.47
2020-12-02,20:10:00,19.47
2020-12-02,20:20:00,19.47
2020-12-02,20:30:00,19.47
2020-12-02,20:40:00,19.46
2020-12-02,20:50:00,19.46
2020-12-02,21:00:00,19.46
2020-12-02,21:10:00,19.46
2020-12-02,21:20:00,19.46
2020-12-02,21:30:00,19.46
2020-12-02,21:40:00,19.45
2020-12-02,21:50:00,19.45
2020-12-02,22:00:00,19.45
2020-12-02,22:10:00,19.45
2020-12-02,22:20:00,19.44
2020-12-02,22:30:00,19.44
2020-12-02,22:40:00,19.44
2020-12-02,22:50:00,19.44
2020-12-02,23:00:00,19.43
2020-12-02,23:10:00,19.43
2020-12-02,23:20:00,19.42
2020-12-02,23:30:00,19.42
2020-12-02,23:40:00,19.42
2020-12-02,23:50:00,19.41
2020-12-03,00:00:00,19.42
2020-12-03,00:10:00,19.41
2020-12-03,00:20:00,19.41
2020-12-03,00:30:00,19.41
2020-12-03,00:40:00,19.4
2020-12-03,00:50:00,19.39
2020-12-03,01:00:00,19.39
2020-12-03,01:10:00,19.39
2020-12-03,01:20:00,19.38
2020-12-03,01:30:00,19.38
2020-12-03,01:40:00,19.37
2020-12-03,01:50:00,19.36
2020-12-03,02:00:00,19.36
2020-12-03,02:10:00,19.35
2020-12-03,02:20:00,19.34
2020-12-03,02:30:00,19.34
2020-12-03,02:40:00,19.33
2020-12-03,02:50:00,19.33
2020-12-03,03:00:00,19.31
2020-12-03,03:10:00,19.31
2020-12-03,03:20:00,19.31
2020-12-03,03:30:00,19.3
2020-12-03,03:40:00,19.3
2020-12-03,03:50:00,19.29
2020-12-03,04:00:00,19.28
2020-12-03,04:10:00,19.27
2020-12-03,04:20:00,19.27
2020-12-03,04:30:00,19.26
2020-12-03,04:40:00,19.25
2020-12-03,04:50:00,19.25
2020-12-03,05:00:00,19.24
2020-12-03,05:10:00,19.23
2020-12-03,05:20:00,19.23
2020-12-03,05:30:00,19.22
2020-12-03,05:40:00,19.22
2020-12-03,05:50:00,19.22
2020-12-03,06:00:00,19.21
2020-12-03,06:10:00,19.21
2020-12-03,06:20:00,19.21
2020-12-03,06:30:00,19.2
2020-12-03,06:40:00,19.19
2020-12-03,06:50:00,19.19
2020-12-03,07:00:00,19.19
2020-12-03,07:10:00,19.18
2020-12-03,07:20:00,19.18
2020-12-03,07:30:00,19.17
2020-12-03,07:40:00,19.16
2020-12-03,07:50:00,19.16
2020-12-03,08:00:00,19.16
2020-12-03,08:10:00,19.15
2020-12-03,08:20:00,19.15
2020-12-03,08:30:00,19.14
2020-12-03,08:40:00,19.14
2020-12-03,08:50:00,19.14
2020-12-03,09:00:00,19.13
2020-12-03,09:10:00,19.13
2020-12-03,09:20:00,19.13
2020-12-03,09:30:00,19.12
2020-12-03,09:40:00,19.12
2020-12-03,09:50:00,19.12
2020-12-03,10:00:00,19.12
2020-12-03,10:10:00,19.11
2020-12-03,10:20:00,19.11
2020-12-03,10:30:00,19.11
2020-12-03,10:40:00,19.11
2020-12-03,10:50:00,19.11
2020-12-03,11:00:00,19.1
2020-12-03,11:10:00,19.1
2020-12-03,11:20:00,19.1
2020-12-03,11:30:00,19.1
2020-12-03,11:40:00,19.1
2020-12-03,11:50:00,19.1
2020-12-03,12:00:00,19.1
2020-12-03,12:10:00,19.1
2020-12-03,12:20:00,19.1
2020-12-03,12:30:00,19.1
2020-12-03,12:40:00,19.1
2020-12-03,12:50:00,19.1
2020-12-03,13:00:00,19.1
2020-12-03,13:10:00,19.1
2020-12-03,13:20:00,19.1
2020-12-03,13:30:00,19.1
2020-12-03,13:40:00,19.1
2020-12-03,13:50:00,19.1
2020-12-03,14:00:00,19.1
2020-12-03,14:10:00,19.1
2020-12-03,14:20:00,19.1
2020-12-03,14:30:00,19.1
2020-12-03,14:40:00,19.1
2020-12-03,14:50:00,19.1
2020-12-03,15:00:00,19.1
2020-12-03,15:10:00,19.09
2020-12-03,15:20:00,19.09
2020-12-03,15:30:00,19.09
2020-12-03,15:40:00,19.09
2020-12-03,15:50:00,19.08
2020-12-03,16:00:00,19.08
2020-12-03,16:10:00,19.08
2020-12-03,16:20:00,19.08
2020-12-03,16:30:00,19.08
2020-12-03,16:40:00,19.07
2020-12-03,16:50:00,19.07
2020-12-03,17:00:00,19.07
2020-12-03,17:10:00,19.06
2020-12-03,17:20:00,19.06
2020-12-03,17:30:00,19.05
2020-12-03,17:40:00,19.05
2020-12-03,17:50:00,19.04
2020-12-03,18:00:00,19.04
2020-12-03,18:10:00,19.03
2020-12-03,18:20:00,19.03
2020-12-03,18:30:00,19.02
2020-12-03,18:40:00,19.01
2020-12-03,18:50:00,19.01
2020-12-03,19:00:00,19
2020-12-03,19:10:00,18.99
2020-12-03,19:20:00,18.99
2020-12-03,19:30:00,18.98
2020-12-03,19:40:00,18.97
2020-12-03,19:50:00,18.96
2020-12-03,20:00:00,18.95
2020-12-03,20:10:00,18.94
2020-12-03,20:20:00,18.93
2020-12-03,20:30:00,18.92
2020-12-03,20:40:00,18.91
2020-12-03,20:50:00,18.9
2020-12-03,21:00:00,18.89
2020-12-03,21:10:00,18.87
2020-12-03,21:20:00,18.86
2020-12-03,21:30:00,18.84
2020-12-03,21:40:00,18.83
2020-12-03,21:50:00,18.81
2020-12-03,22:00:00,18.8
2020-12-03,22:10:00,18.78
2020-12-03,22:20:00,18.76
2020-12-03,22:30:00,18.74
2020-12-03,22:40:00,18.72
2020-12-03,22:50:00,18.71
2020-12-03,23:00:00,18.69
2020-12-03,23:10:00,18.67
2020-12-03,23:20:00,18.65
2020-12-03,23:30:00,18.63
2020-12-03,23:40:00,18.61
2020-12-03,23:50:00,18.59
2020-12-04,00:00:00,18.57
2020-12-04,00:10:00,18.55
2020-12-04,00:20:00,18.53
2020-12-04,00:30:00,18.51
2020-12-04,00:40:00,18.49
2020-12-04,00:50:00,18.47
2020-12-04,01:00:00,18.45
2020-12-04,01:10:00,18.43
2020-12-04,01:20:00,18.41
2020-12-04,01:30:00,18.38
2020-12-04,01:40:00,18.36
2020-12-04,01:50:00,18.34
2020-12-04,02:00:00,18.32
2020-12-04,02:10:00,18.3
2020-12-04,02:20:00,18.27
2020-12-04,02:30:00,18.25
2020-12-04,02:40:00,18.23
2020-12-04,02:50:00,18.21
2020-12-04,03:00:00,18.18
2020-12-04,03:10:00,18.16
2020-12-04,03:20:00,18.14
2020-12-04,03:30:00,18.12
2020-12-04,03:40:00,18.09
2020-12-04,03:50:00,18.07
2020-12-04,04:00:00,18.05
2020-12-04,04:10:00,18.03
2020-12-04,04:20:00,18.01
2020-12-04,04:30:00,17.99
2020-12-04,04:40:00,17.96
2020-12-04,04:50:00,17.94
2020-12-04,05:00:00,17.92
2020-12-04,05:10:00,17.9
2020-12-04,05:20:00,17.88
2020-12-04,05:30:00,17.86
2020-12-04,05:40:00,17.84
2020-12-04,05:50:00,17.81
2020-12-04,06:00:00,17.79
2020-12-04,06:10:00,17.77
2020-12-04,06:20:00,17.75
2020-12-04,06:30:00,17.73
2020-12-04,06:40:00,17.71
2020-12-04,06:50:00,17.69
2020-12-04,07:00:00,17.66
2020-12-04,07:10:00,17.64
2020-12-04,07:20:00,17.62
2020-12-04,07:30:00,17.6
2020-12-04,07:40:00,17.58
2020-12-04,07:50:00,17.56
2020-12-04,08:00:00,17.53
2020-12-04,08:10:00,17.51
2020-12-04,08:20:00,17.49
2020-12-04,08:30:00,17.47
2020-12-04,08:40:00,17.45
2020-12-04,08:50:00,17.43
2020-12-04,09:00:00,17.41
2020-12-04,09:10:00,17.39
2020-12-04,09:20:00,17.37
2020-12-04,09:30:00,17.34
2020-12-04,09:40:00,17.32
2020-12-04,09:50:00,17.3
2020-12-04,10:00:00,17.28
2020-12-04,10:10:00,17.26
2020-12-04,10:20:00,17.23
2020-12-04,10:30:00,17.21
2020-12-04,10:40:00,17.19
2020-12-04,10:50:00,17.17
2020-12-04,11:00:00,17.13
2020-12-04,11:10:00,17.12
2020-12-04,11:20:00,17.1
2020-12-04,11:30:00,17.08
2020-12-04,11:40:00,17.06
2020-12-04,11:50:00,17.03
2020-12-04,12:00:00,17.01
2020-12-04,12:10:00,16.99
2020-12-04,12:20:00,16.96
2020-12-04,12:30:00,16.94
2020-12-04,12:40:00,16.92
2020-12-04,12:50:00,16.89
2020-12-04,13:00:00,16.87
2020-12-04,13:10:00,16.85
2020-12-04,13:20:00,16.82
2020-12-04,13:30:00,16.8
2020-12-04,13:40:00,16.78
2020-12-04,13:50:00,16.75
2020-12-04,14:00:00,16.73
2020-12-04,14:10:00,16.7
2020-12-04,14:20:00,16.68
2020-12-04,14:30:00,16.66
2020-12-04,14:40:00,16.63
2020-12-04,14:50:00,16.61
2020-12-04,15:00:00,16.59
2020-12-04,15:10:00,16.56
2020-12-04,15:20:00,16.54
2020-12-04,15:30:00,16.51
2020-12-04,15:40:00,16.49
2020-12-04,15:50:00,16.47
2020-12-04,16:00:00,16.44
2020-12-04,16:10:00,16.41
2020-12-04,16:20:00,16.39
2020-12-04,16:30:00,16.37
2020-12-04,16:40:00,16.34
2020-12-04,16:50:00,16.32
2020-12-04,17:00:00,16.3
2020-12-04,17:10:00,16.27
2020-12-04,17:20:00,16.25
2020-12-04,17:30:00,16.23
2020-12-04,17:40:00,16.2
2020-12-04,17:50:00,16.18
2020-12-04,18:00:00,16.16
2020-12-04,18:10:00,16.13
2020-12-04,18:20:00,16.11
2020-12-04,18:30:00,16.09
2020-12-04,18:40:00,16.06
2020-12-04,18:50:00,16.04
2020-12-04,19:00:00,16.02
2020-12-04,19:10:00,16
2020-12-04,19:20:00,15.98
2020-12-04,19:30:00,15.96
2020-12-04,19:40:00,15.94
2020-12-04,19:50:00,15.91
2020-12-04,20:00:00,15.89
2020-12-04,20:10:00,15.87
2020-12-04,20:20:00,15.85
2020-12-04,20:30:00,15.84
2020-12-04,20:40:00,15.82
2020-12-04,20:50:00,15.8
2020-12-04,21:00:00,15.78
2020-12-04,21:10:00,15.76
2020-12-04,21:20:00,15.74
2020-12-04,21:30:00,15.72
2020-12-04,21:40:00,15.71
2020-12-04,21:50:00,15.69
2020-12-04,22:00:00,15.67
2020-12-04,22:10:00,15.66
2020-12-04,22:20:00,15.64
2020-12-04,22:30:00,15.63
2020-12-04,22:40:00,15.61
2020-12-04,22:50:00,15.6
2020-12-04,23:00:00,15.58
2020-12-04,23:10:00,15.57
2020-12-04,23:20:00,15.56
2020-12-04,23:30:00,15.54
2020-12-04,23:40:00,15.53
2020-12-04,23:50:00,15.52
2020-12-05,00:00:00,15.5
2020-12-05,00:10:00,15.49
2020-12-05,00:20:00,15.48
2020-12-05,00:30:00,15.46
2020-12-05,00:40:00,15.45
2020-12-05,00:50:00,15.44
2020-12-05,01:00:00,15.43
2020-12-05,01:10:00,15.42
2020-12-05,01:20:00,15.41
2020-12-05,01:30:00,15.4
2020-12-05,01:40:00,15.39
2020-12-05,01:50:00,15.38
2020-12-05,02:00:00,15.37
2020-12-05,02:10:00,15.36
2020-12-05,02:20:00,15.35
2020-12-05,02:30:00,15.34
2020-12-05,02:40:00,15.33
2020-12-05,02:50:00,15.32
2020-12-05,03:00:00,15.31
2020-12-05,03:10:00,15.3
2020-12-05,03:20:00,15.29
2020-12-05,03:30:00,15.28
2020-12-05,03:40:00,15.27
2020-12-05,03:50:00,15.26
2020-12-05,04:00:00,15.25
2020-12-05,04:10:00,15.24
2020-12-05,04:20:00,15.24
2020-12-05,04:30:00,15.23
2020-12-05,04:40:00,15.22
2020-12-05,04:50:00,15.21
2020-12-05,05:00:00,15.2
2020-12-05,05:10:00,15.2
2020-12-05,05:20:00,15.19
2020-12-05,05:30:00,15.18
2020-12-05,05:40:00,15.17
2020-12-05,05:50:00,15.16
2020-12-05,06:00:00,15.16
2020-12-05,06:10:00,15.15
2020-12-05,06:20:00,15.14
2020-12-05,06:30:00,15.13
2020-12-05,06:40:00,15.13
2020-12-05,06:50:00,15.12
2020-12-05,07:00:00,15.11
2020-12-05,07:10:00,15.11
2020-12-05,07:20:00,15.1
2020-12-05,07:30:00,15.09
2020-12-05,07:40:00,15.08
2020-12-05,07:50:00,15.08
2020-12-05,08:00:00,15.07
2020-12-05,08:10:00,15.06
2020-12-05,08:20:00,15.06
2020-12-05,08:30:00,15.05
2020-12-05,08:40:00,15.04
2020-12-05,08:50:00,15.03
2020-12-05,09:00:00,15.03
2020-12-05,09:10:00,15.02
2020-12-05,09:20:00,15.02
2020-12-05,09:30:00,15.01
2020-12-05,09:40:00,15
2020-12-05,09:50:00,15
2020-12-05,10:00:00,14.99
2020-12-05,10:10:00,14.99
2020-12-05,10:20:00,14.98
2020-12-05,10:30:00,14.97
2020-12-05,10:40:00,14.96
2020-12-05,10:50:00,14.96
2020-12-05,11:00:00,14.95
2020-12-05,11:10:00,14.95
2020-12-05,11:20:00,14.94
2020-12-05,11:30:00,14.94
2020-12-05,11:40:00,14.93
2020-12-05,11:50:00,14.92
2020-12-05,12:00:00,14.92
2020-12-05,12:10:00,14.91
2020-12-05,12:20:00,14.91
2020-12-05,12:30:00,14.9
2020-12-05,12:40:00,14.89
2020-12-05,12:50:00,14.89
2020-12-05,13:00:00,14.88
2020-12-05,13:10:00,14.88
2020-12-05,13:20:00,14.87
2020-12-05,13:30:00,14.86
2020-12-05,13:40:00,14.86
2020-12-05,13:50:00,14.85
2020-12-05,14:00:00,14.85
2020-12-05,14:10:00,14.84
2020-12-05,14:20:00,14.84
2020-12-05,14:30:00,14.83
2020-12-05,14:40:00,14.83
2020-12-05,14:50:00,14.82
2020-12-05,15:00:00,14.81
2020-12-05,15:10:00,14.81
2020-12-05,15:20:00,14.8
2020-12-05,15:30:00,14.8
2020-12-05,15:40:00,14.79
2020-12-05,15:50:00,14.79
2020-12-05,16:00:00,14.78
2020-12-05,16:10:00,14.78
2020-12-05,16:20:00,14.77
2020-12-05,16:30:00,14.76
2020-12-05,16:40:00,14.76
2020-12-05,16:50:00,14.75
2020-12-05,17:00:00,14.75
2020-12-05,17:10:00,14.74
2020-12-05,17:20:00,14.74
2020-12-05,17:30:00,14.73
2020-12-05,17:40:00,14.73
2020-12-05,17:50:00,14.72
2020-12-05,18:00:00,14.72
2020-12-05,18:10:00,14.71
2020-12-05,18:20:00,14.71
2020-12-05,18:30:00,14.7
2020-12-05,18:40:00,14.7
2020-12-05,18:50:00,14.69
2020-12-05,19:00:00,14.69
2020-12-05,19:10:00,14.68
2020-12-05,19:20:00,14.68
2020-12-05,19:30:00,14.67
2020-12-05,19:40:00,14.66
2020-12-05,19:50:00,14.66
2020-12-05,20:00:00,14.66
2020-12-05,20:10:00,14.65
2020-12-05,20:20:00,14.65
2020-12-05,20:30:00,14.64
2020-12-05,20:40:00,14.64
2020-12-05,20:50:00,14.63
2020-12-05,21:00:00,14.63
2020-12-05,21:10:00,14.63
2020-12-05,21:20:00,14.62
2020-12-05,21:30:00,14.61
2020-12-05,21:40:00,14.61
2020-12-05,21:50:00,14.6
2020-12-05,22:00:00,14.6
2020-12-05,22:10:00,14.59
2020-12-05,22:20:00,14.59
2020-12-05,22:30:00,14.58
2020-12-05,22:40:00,14.58
2020-12-05,22:50:00,14.58
2020-12-05,23:00:00,14.57
2020-12-05,23:10:00,14.56
2020-12-05,23:20:00,14.56
2020-12-05,23:30:00,14.55
2020-12-05,23:40:00,14.55
2020-12-05,23:50:00,14.55
2020-12-06,00:00:00,14.54
2020-12-06,00:10:00,14.54
2020-12-06,00:20:00,14.53
2020-12-06,00:30:00,14.52
2020-12-06,00:40:00,14.52
2020-12-06,00:50:00,14.52
2020-12-06,01:00:00,14.51
2020-12-06,01:10:00,14.51
2020-12-06,01:20:00,14.51
2020-12-06,01:30:00,14.5
2020-12-06,01:40:00,14.5
2020-12-06,01:50:00,14.49
2020-12-06,02:00:00,14.49
2020-12-06,02:10:00,14.49
2020-12-06,02:20:00,14.48
2020-12-06,02:30:00,14.48
2020-12-06,02:40:00,14.47
2020-12-06,02:50:00,14.47
2020-12-06,03:00:00,14.47
2020-12-06,03:10:00,14.46
2020-12-06,03:20:00,14.46
2020-12-06,03:30:00,14.46
2020-12-06,03:40:00,14.45
2020-12-06,03:50:00,14.45
2020-12-06,04:00:00,14.45
2020-12-06,04:10:00,14.44
2020-12-06,04:20:00,14.44
2020-12-06,04:30:00,14.44
2020-12-06,04:40:00,14.43
2020-12-06,04:50:00,14.43
2020-12-06,05:00:00,14.42
2020-12-06,05:10:00,14.42
2020-12-06,05:20:00,14.42
2020-12-06,05:30:00,14.41
2020-12-06,05:40:00,14.41
2020-12-06,05:50:00,14.41
2020-12-06,06:00:00,14.41
2020-12-06,06:10:00,14.4
2020-12-06,06:20:00,14.4
2020-12-06,06:30:00,14.4
2020-12-06,06:40:00,14.39
2020-12-06,06:50:00,14.39
2020-12-06,07:00:00,14.39
2020-12-06,07:10:00,14.38
2020-12-06,07:20:00,14.38
2020-12-06,07:30:00,14.38
2020-12-06,07:40:00,14.37
2020-12-06,07:50:00,14.38
2020-12-06,08:00:00,14.37
2020-12-06,08:10:00,14.37
2020-12-06,08:20:00,14.36
2020-12-06,08:30:00,14.36
2020-12-06,08:40:00,14.36
2020-12-06,08:50:00,14.36
2020-12-06,09:00:00,14.35
2020-12-06,09:10:00,14.35
2020-12-06,09:20:00,14.35
2020-12-06,09:30:00,14.34
2020-12-06,09:40:00,14.34
2020-12-06,09:50:00,14.34
2020-12-06,10:00:00,14.34
2020-12-06,10:10:00,14.34
2020-12-06,10:20:00,14.33
2020-12-06,10:30:00,14.33
2020-12-06,10:40:00,14.33
2020-12-06,10:50:00,14.33
2020-12-06,11:00:00,14.32
2020-12-06,11:10:00,14.32
2020-12-06,11:20:00,14.32
2020-12-06,11:30:00,14.31
2020-12-06,11:40:00,14.32
2020-12-06,11:50:00,14.31
2020-12-06,12:00:00,14.31
2020-12-06,12:10:00,14.31
2020-12-06,12:20:00,14.3
2020-12-06,12:30:00,14.3
2020-12-06,12:40:00,14.3
2020-12-06,12:50:00,14.3
2020-12-06,13:00:00,14.29
2020-12-06,13:10:00,14.3
2020-12-06,13:20:00,14.29
2020-12-06,13:30:00,14.29
2020-12-06,13:40:00,14.28
2020-12-06,13:50:00,14.28
2020-12-06,14:00:00,14.28
2020-12-06,14:10:00,14.28
2020-12-06,14:20:00,14.27
2020-12-06,14:30:00,14.27
2020-12-06,14:40:00,14.27
2020-12-06,14:50:00,14.26
2020-12-06,15:00:00,14.27
2020-12-06,15:10:00,14.26
2020-12-06,15:20:00,14.26
2020-12-06,15:30:00,14.26
2020-12-06,15:40:00,14.26
2020-12-06,15:50:00,14.25
2020-12-06,16:00:00,14.25
2020-12-06,16:10:00,14.25
2020-12-06,16:20:00,14.24
2020-12-06,16:30:00,14.25
2020-12-06,16:40:00,14.24
2020-12-06,16:50:00,14.24
2020-12-06,17:00:00,14.24
2020-12-06,17:10:00,14.24
2020-12-06,17:20:00,14.23
2020-12-06,17:30:00,14.23
2020-12-06,17:40:00,14.22
2020-12-06,17:50:00,14.22
2020-12-06,18:00:00,14.23
2020-12-06,18:10:00,14.22
2020-12-06,18:20:00,14.22
2020-12-06,18:30:00,14.22
2020-12-06,18:40:00,14.22
2020-12-06,18:50:00,14.22
2020-12-06,19:00:00,14.21
2020-12-06,19:10:00,14.21
2020-12-06,19:20:00,14.21
2020-12-06,19:30:00,14.2
2020-12-06,19:40:00,14.2
2020-12-06,19:50:00,14.2
2020-12-06,20:00:00,14.2
2020-12-06,20:10:00,14.19
2020-12-06,20:20:00,14.19
2020-12-06,20:30:00,14.19
2020-12-06,20:40:00,14.18
2020-12-06,20:50:00,14.19
2020-12-06,21:00:00,14.18
2020-12-06,21:10:00,14.18
2020-12-06,21:20:00,14.18
2020-12-06,21:30:00,14.18
2020-12-06,21:40:00,14.17
2020-12-06,21:50:00,14.17
2020-12-06,22:00:00,14.17
2020-12-06,22:10:00,14.17
2020-12-06,22:20:00,14.17
2020-12-06,22:30:00,14.16
2020-12-06,22:40:00,14.17
2020-12-06,22:50:00,14.16
2020-12-06,23:00:00,14.16
2020-12-06,23:10:00,14.15
2020-12-06,23:20:00,14.15
2020-12-06,23:30:00,14.15
2020-12-06,23:40:00,14.15
2020-12-06,23:50:00,14.15
2020-12-07,00:00:00,14.13
2020-12-07,00:10:00,14.14
2020-12-07,00:20:00,14.14
2020-12-07,00:30:00,14.14
2020-12-07,00:40:00,14.14
2020-12-07,00:50:00,14.13
2020-12-07,01:00:00,14.13
2020-12-07,01:10:00,14.13
2020-12-07,01:20:00,14.12
2020-12-07,01:30:00,14.12
2020-12-07,01:40:00,14.12
2020-12-07,01:50:00,14.12
2020-12-07,02:00:00,14.12
2020-12-07,02:10:00,14.11
2020-12-07,02:20:00,14.11
2020-12-07,02:30:00,14.11
2020-12-07,02:40:00,14.11
2020-12-07,02:50:00,14.11
2020-12-07,03:00:00,14.11
2020-12-07,03:10:00,14.11
2020-12-07,03:20:00,14.1
2020-12-07,03:30:00,14.1
2020-12-07,03:40:00,14.1
2020-12-07,03:50:00,14.1
2020-12-07,04:00:00,14.09
2020-12-07,04:10:00,14.09
2020-12-07,04:20:00,14.09
2020-12-07,04:30:00,14.09
2020-12-07,04:40:00,14.09
2020-12-07,04:50:00,14.08
2020-12-07,05:00:00,14.09
2020-12-07,05:10:00,14.09
2020-12-07,05:20:00,14.08
2020-12-07,05:30:00,14.08
2020-12-07,05:40:00,14.08
2020-12-07,05:50:00,14.08
2020-12-07,06:00:00,14.08
2020-12-07,06:10:00,14.07
2020-12-07,06:20:00,14.08
2020-12-07,06:30:00,14.07
2020-12-07,06:40:00,14.07
2020-12-07,06:50:00,14.06
2020-12-07,07:00:00,14.06
2020-12-07,07:10:00,14.06
2020-12-07,07:20:00,14.06
2020-12-07,07:30:00,14.06
2020-12-07,07:40:00,14.06
2020-12-07,07:50:00,14.06
2020-12-07,08:00:00,14.06
2020-12-07,08:10:00,14.05
2020-12-07,08:20:00,14.05
2020-12-07,08:30:00,14.05
2020-12-07,08:40:00,14.05
2020-12-07,08:50:00,14.05
2020-12-07,09:00:00,14.04
2020-12-07,09:10:00,14.05
2020-12-07,09:20:00,14.05
2020-12-07,09:30:00,14.04
2020-12-07,09:40:00,14.04
2020-12-07,09:50:00,14.04
2020-12-07,10:00:00,14.04
2020-12-07,10:10:00,14.04
2020-12-07,10:20:00,14.04
2020-12-07,10:30:00,14.03
2020-12-07,10:40:00,14.03